Location: Ethel Rock
(53.4667°N, 4.5667°W)
Time: 00:58:06
(UTC+00:00)

CZ-2C R/B - Pass Details

Date: 24 October 2020
Orbit: 784 x 871 km, 98.2° (Epoch: 26 November)

Event Time Altitude Azimuth Distance (km) Brightness Sun altitude
Rises 05:56:59 0° 141° (SE) 3,429 6.6 -10.4°
Reaches altitude 10° 05:59:26 10° 135° (SE) 2,504 6.0 -10.0°
Maximum altitude 06:04:43 45° 64° (ENE) 1,169 3.9 -9.2°
Drops below altitude 10° 06:10:03 10° 354° (N) 2,533 5.0 -8.4°
Sets 06:12:32 0° 348° (NNW) 3,473 5.7 -8.1°
